This is the latest recevied weather packets stored in our database for station/object NO4D. If no packets are shown the sender has not sent any weather packets the latest 10 day(s).
| Time | Temp. | Humidity | Pressure | Rain* | Wind** | Luminosity | Snow |
|---|---|---|---|---|---|---|---|
| 1777560873 | 18.89° C | 82% | 1011.6 hPa | 0 mm | - | 297 W/m² | - |
| 1777560571 | 18.33° C | 84% | 1011.5 hPa | 0 mm | - | 807 W/m² | - |
| 1777560269 | 18.33° C | 85% | 1011.3 hPa | 0 mm | - | 275 W/m² | - |
| 1777559967 | 18.33° C | 87% | 1011.3 hPa | 0 mm | - | 324 W/m² | - |
| 1777559667 | 18.33° C | 87% | 1011.4 hPa | 0 mm | - | 280 W/m² | - |
| 1777559365 | 17.78° C | 90% | 1010.9 hPa | 0 mm | - | 482 W/m² | - |
| 1777559061 | 17.78° C | 91% | 1010.9 hPa | 0 mm | - | 413 W/m² | - |
| 1777558756 | 17.22° C | 94% | 1011 hPa | 0 mm | - | 314 W/m² | - |
| 1777558452 | 16.67° C | 93% | 1010.8 hPa | 0 mm | - | 285 W/m² | - |
| 1777558149 | 16.11° C | 94% | 1011 hPa | 0 mm | - | 239 W/m² | - |
| 1777557845 | 16.11° C | 96% | 1010.9 hPa | 0 mm | - | 203 W/m² | - |
| 1777557542 | 16.67° C | 97% | 1010.9 hPa | 0 mm | - | 216 W/m² | - |
| 1777557238 | 16.11° C | 97% | 1010.8 hPa | 0 mm | - | 233 W/m² | - |
| 1777556934 | 15.56° C | 98% | 1010.6 hPa | 0 mm | - | 294 W/m² | - |
| 1777556630 | 15.56° C | 99% | 1010.6 hPa | 0 mm | - | 290 W/m² | - |
| 1777556330 | 15.56° C | 99% | 1010.8 hPa | 0 mm | - | 292 W/m² | - |
| 1777556027 | 15.56° C | 99% | 1010.7 hPa | 0 mm | - | 366 W/m² | - |
| 1777555722 | 15.56° C | 99% | 1010.5 hPa | 0 mm | - | 235 W/m² | - |
| 1777555418 | 15.56° C | 99% | 1010.7 hPa | 0 mm | - | 147 W/m² | - |
| 1777555115 | 15.56° C | 99% | 1010.8 hPa | 0 mm | - | 195 W/m² | - |
| 1777554812 | 15.56° C | 99% | 1010.2 hPa | 0 mm | - | 136 W/m² | - |
| 1777554509 | 15° C | 99% | 1010.3 hPa | 0 mm | - | 311 W/m² | - |
| 1777554206 | 15° C | 99% | 1011 hPa | 0 mm | - | 118 W/m² | - |
| 1777553903 | 15° C | 99% | 1010.7 hPa | 0 mm | - | 44 W/m² | - |
| 1777553599 | 15° C | 99% | 1010.5 hPa | 0 mm | - | 35 W/m² | - |
* Rain latest hour (hover to see other rain measurements)
** Current wind speed in m/s (hover to see current wind gust speed)